Ord, NE

2:47 AM CST on December 12, 2017 (GMT -0600)
Sharp

Weather History for KODX - March, 2013

Change the Weather History Date:

Thursday, March 7, 2013

  Actual Average Record
Temperature  
Mean Temperature 37 °F 34 °F  
Max Temperature 50 °F 47 °F 79 °F (2016)
Min Temperature 23 °F 21 °F 0 °F (2008)
Degree Days  
Heating Degree Days 28 31  
Month to date heating degree days 245 225  
Since 1 July heating degree days 5214 5242  
Cooling Degree Days 0 0  
Month to date cooling degree days 0 0  
Year to date cooling degree days 0 0  
Moisture  
Dew Point 23 °F    
Average Humidity 64    
Maximum Humidity 88    
Minimum Humidity 39    
Precipitation  
Precipitation 0.00 in 0.03 in 1.60 in (1950)
Month to date precipitation T 0.13  
Year to date precipitation 1.62 0.94  
Sea Level Pressure  
Sea Level Pressure 30.10 in    
Wind  
Wind Speed 8 mph (SSE)    
Max Wind Speed 18 mph    
Max Gust Speed 24 mph    
Visibility 9 miles    
Events      
T = Trace of Precipitation, MM = Missing Value Source: NWS Daily Summary

Daily Weather History Graph

Daily Weather History Graph

Search for Another Location

Airport or City:

Trip Planner

Search our weather history database for the weather conditions in past years. The results will help you decide how hot, cold, wet, or windy it might be!

Date:

Astronomy

Mar. 07, 2013 Rise Set
Actual Time 7:00 AM CST 6:33 PM CST
Civil Twilight 6:32 AM CST 7:01 PM CST
Nautical Twilight 6:00 AM CST 7:33 PM CST
Astronomical Twilight 5:28 AM CST 8:05 PM CST
Moon 4:04 AM CST (3/7) 2:20 PM CST (3/7)
Length of Visible Light 12h 28m
Length of Day
11h 33m
Waning Crescent, 20% of the Moon is Illuminated
Mar 7
Waning Crescent
Mar 11
New
Mar 19
First Quarter
Mar 27
Full
Apr 2
Last Quarter

Hourly Weather History & Observations

Time (CST) Temp. Windchill Dew Point Humidity Pressure Visibility Wind Dir Wind Speed Gust Speed Precip Events Conditions
12:53 AM 28.0 °F 19.3 °F 21.0 °F 75% 30.13 in 10.0 mi SE 9.2 mph - N/A   Clear
1:53 AM 26.1 °F 16.2 °F 21.0 °F 81% 30.12 in 10.0 mi SE 10.4 mph - N/A   Clear
2:53 AM 26.1 °F 16.2 °F 21.0 °F 81% 30.12 in 10.0 mi SE 10.4 mph - N/A   Clear
3:53 AM 25.0 °F 14.8 °F 21.0 °F 85% 30.11 in 10.0 mi SE 10.4 mph - N/A   Clear
4:53 AM 24.1 °F 13.7 °F 21.0 °F 88% 30.11 in 10.0 mi SE 10.4 mph - N/A   Clear
5:53 AM 24.1 °F 13.1 °F 19.9 °F 84% 30.13 in 8.0 mi SE 11.5 mph - N/A   Clear
6:53 AM 23.0 °F 13.9 °F 19.4 °F 86% 30.06 in 6.0 mi SE 8.1 mph - N/A   Clear
7:42 AM 23.0 °F 12.4 °F 19.4 °F 86% 30.07 in 4.0 mi SE 10.4 mph - N/A   Partly Cloudy
7:53 AM 23.0 °F 13.1 °F 19.9 °F 88% 30.14 in 4.0 mi SE 9.2 mph - N/A   Partly Cloudy
8:53 AM 26.6 °F 14.3 °F 21.2 °F 80% 30.06 in 5.0 mi SSE 16.1 mph 23.0 mph N/A   Haze
9:53 AM 30.0 °F 21.1 °F 23.0 °F 75% 30.14 in 8.0 mi SSE 10.4 mph 19.6 mph N/A   Clear
10:53 AM 34.0 °F 25.5 °F 24.1 °F 67% 30.12 in 9.0 mi SSE 11.5 mph - N/A   Clear
11:53 AM 37.9 °F 29.2 °F 24.1 °F 57% 30.10 in 10.0 mi SSE 15.0 mph 21.9 mph N/A   Clear
12:53 PM 43.0 °F 35.7 °F 25.0 °F 49% 30.08 in 10.0 mi South 15.0 mph - N/A   Clear
1:53 PM 46.0 °F 40.6 °F 26.1 °F 46% 30.06 in 10.0 mi South 11.5 mph - N/A   Clear
2:53 PM 48.0 °F - 26.1 °F 42% 30.05 in 10.0 mi SSE 9.2 mph - N/A   Clear
3:53 PM 48.0 °F - 27.0 °F 44% 30.05 in 10.0 mi SSE 11.5 mph - N/A   Clear
4:53 PM 50.0 °F - 27.0 °F 41% 30.05 in 10.0 mi South 9.2 mph - N/A   Clear
5:53 PM 46.9 °F - 27.0 °F 46% 30.07 in 10.0 mi SSE 5.8 mph - N/A   Clear
6:53 PM 39.9 °F 37.8 °F 26.1 °F 58% 30.11 in 10.0 mi SE 3.5 mph - N/A   Clear
7:53 PM 33.1 °F - 25.0 °F 72% 30.12 in 10.0 mi Calm Calm - N/A   Clear
8:53 PM 28.9 °F - 23.0 °F 78% 30.14 in 10.0 mi Calm Calm - N/A   Clear
9:53 PM 30.0 °F - 24.1 °F 79% 30.14 in 10.0 mi Calm Calm - N/A   Clear
10:53 PM 26.1 °F - 21.9 °F 84% 30.15 in 10.0 mi Calm Calm - N/A   Clear
11:53 PM 27.0 °F 23.0 °F 23.0 °F 85% 30.14 in 9.0 mi NW 3.5 mph - N/A   Clear